Voltar ao catálogo

STARLINK-11591

AtivoComunicaçõesVLEO
NORAD 63116·PAYLOAD·🇺🇸 United States

Lançado Feb 27, 2025 de Cape Canaveral Space Force Station

Loading…

Próximas Passagens (próximas 24 horas)

TLE

AtualizadoSource: CelesTrak SupGP

Época: Sep 15, 2026, 02:18 UTC

1 63116C 25039N   26258.09631944 -.00035414  00000+0 -27511-3 0  2580
2 63116  43.0004 174.7757 0001599 271.4463 264.8057 15.70851437    13

Acompanhe STARLINK-11591 em tempo real com AllMySat

Download on the App Store